TimeEDT,TemperatureF,Dew PointF,Humidity,Sea Level PressureIn,VisibilityMPH,Wind Direction,Wind SpeedMPH,Gust SpeedMPH,PrecipitationIn,Events,Conditions,WindDirDegrees,DateUTC
12:53 AM,77.0,70.0,79,29.85,10.0,Variable,3.5,-,N/A,,Mostly Cloudy,0,2013-07-25 04:53:00
1:53 AM,75.9,69.1,79,29.83,10.0,Calm,Calm,-,N/A,,Clear,0,2013-07-25 05:53:00
2:53 AM,75.0,69.1,82,29.82,10.0,Calm,Calm,-,N/A,,Clear,0,2013-07-25 06:53:00
3:53 AM,75.0,69.1,82,29.81,10.0,Calm,Calm,-,N/A,,Clear,0,2013-07-25 07:53:00
4:53 AM,73.9,70.0,87,29.83,10.0,Calm,Calm,-,N/A,,Partly Cloudy,0,2013-07-25 08:53:00
5:53 AM,73.9,70.0,87,29.85,10.0,Calm,Calm,-,N/A,,Clear,0,2013-07-25 09:53:00
6:53 AM,73.0,70.0,90,29.88,10.0,Calm,Calm,-,N/A,,Clear,0,2013-07-25 10:53:00
7:53 AM,75.9,70.0,82,29.89,10.0,Calm,Calm,-,N/A,,Clear,0,2013-07-25 11:53:00
8:53 AM,78.1,69.1,74,29.91,10.0,ENE,4.6,-,N/A,,Clear,70,2013-07-25 12:53:00
9:53 AM,81.0,69.1,67,29.91,10.0,ENE,6.9,-,N/A,,Clear,70,2013-07-25 13:53:00
10:53 AM,84.0,68.0,58,29.92,10.0,ENE,4.6,-,N/A,,Clear,60,2013-07-25 14:53:00
11:53 AM,84.9,68.0,57,29.92,10.0,ENE,6.9,-,N/A,,Clear,70,2013-07-25 15:53:00
12:53 PM,87.1,69.1,55,29.92,10.0,Variable,4.6,-,N/A,,Clear,0,2013-07-25 16:53:00
1:53 PM,88.0,69.1,53,29.92,10.0,Variable,3.5,-,N/A,,Partly Cloudy,0,2013-07-25 17:53:00
2:53 PM,90.0,68.0,48,29.92,10.0,Calm,Calm,-,N/A,,Mostly Cloudy,0,2013-07-25 18:53:00
3:53 PM,90.0,69.1,50,29.91,10.0,Variable,3.5,-,N/A,,Partly Cloudy,0,2013-07-25 19:53:00
4:53 PM,89.1,70.0,53,29.92,10.0,Variable,5.8,-,N/A,,Partly Cloudy,0,2013-07-25 20:53:00
5:53 PM,87.1,70.0,57,29.92,10.0,Variable,3.5,-,N/A,,Partly Cloudy,0,2013-07-25 21:53:00
6:53 PM,88.0,70.0,55,29.93,10.0,Calm,Calm,-,N/A,,Scattered Clouds,0,2013-07-25 22:53:00
7:53 PM,84.9,70.0,61,29.94,10.0,Calm,Calm,-,N/A,,Partly Cloudy,0,2013-07-25 23:53:00
8:53 PM,82.0,70.0,67,29.96,10.0,Calm,Calm,-,N/A,,Clear,0,2013-07-26 00:53:00
9:53 PM,80.1,70.0,71,29.99,10.0,Calm,Calm,-,N/A,,Clear,0,2013-07-26 01:53:00
10:53 PM,78.1,71.1,79,30.00,10.0,Calm,Calm,-,N/A,,Clear,0,2013-07-26 02:53:00
11:53 PM,75.9,71.1,85,30.01,10.0,Calm,Calm,-,N/A,,Clear,0,2013-07-26 03:53:00